CO3D E

Last updated on Mon Jul 28 2025 00:02:07 GMT+0000 (Coordinated Universal Time)

1 64903U 25156E 25208.03023326 -.00000070 00000+0 00000+0 0 9993 2 64903 97.4535 286.2199 0004827 185.3316 299.5622 15.22068585 122

Satellite not in orbit

CO3D E